Regional Weather Roundup
Issued by NWS Sterling, VA

Home | Current Version | Previous Version | Text Only | Print | Product List | Glossary Off
Versions: 1 2 3 4 5 6 7 8 9 10 11 12 13 14 15 16 17 18 19 20 21 22 23 24 25 26 27 28

000
ASUS41 KLWX 211911
RWRLWX

REGIONAL WEATHER ROUNDUP
NATIONAL WEATHER SERVICE BALTIMORE MD/WASHINGTON DC
300 PM EDT SUN MAY 21 2017

Note: "FAIR" indicates few or no clouds below 12,000 feet
with no significant weather and/or obstructions to visibility.
 TC=TEMPERATURE CELSIUS

 * =Non NWS site. Station does not report precipitation (e.g. rain,
    snow, etc.), thunder, or fog.

DCZ001-MDZ009-015-VAZ040>042-051-053>054-212000-
WASHINGTON METRO

CITY           SKY/WX    TMP DP  RH WIND       PRES   REMARKS
WASHINGTON NAT CLOUDY    67  50  54 SE7       30.27F
DULLES         CLOUDY    65  46  50 SE9       30.26F
ANDREWS AFB    MOSUNNY   66  50  55 SE8       30.26F
FT BELVOIR     CLOUDY    66  48  53 SE5       30.26F
QUANTICO       CLOUDY    67  52  58 SE7       30.27S
COLLEGE PARK*  CLOUDY    66  49  54 SE6       30.27S
LEESBURG*      CLOUDY    68  46  45 SE9       30.27S
MANASSAS*        N/A     64  50  60 SE6       30.27F
GAITHERSBURG*  CLOUDY    66  49  54 VRB7      30.27F

$$

MDZ006>007-011-014-212000-
BALTIMORE METRO

CITY           SKY/WX    TMP DP  RH WIND       PRES   REMARKS
BWI AIRPORT    CLOUDY    65  49  56 VRB7      30.26F
MD SCIENCE CTR   N/A     66  49  54 MISG      30.28F
MARTIN STATE   CLOUDY    66  52  59 E9        30.29F
ANNAPOLIS      CLOUDY    67  49  52 SE10      30.26F
FORT MEADE*    CLOUDY    64  48  55 E10       30.29F

$$

MDZ012-015-019>023-212000-
MARYLAND EASTERN SHORE

CITY           SKY/WX    TMP DP  RH WIND       PRES   REMARKS
OCEAN CITY     MOSUNNY   63  53  70 E12       30.30S
SALISBURY      CLOUDY    67  49  52 E15G22    30.27F
BAY BRIDGE AP*   N/A     68  45  42 SE8       30.27F
CAMBRIDGE*     CLOUDY    68  43  40 E10       30.27S
EASTON*        CLOUDY    68  46  45 SE6       30.31F

$$

MDZ017>025-212000-
SOUTHERN MARYLAND

CITY           SKY/WX    TMP DP  RH WIND       PRES   REMARKS
PATUXENT RIVER CLOUDY    66  51  58 SE8       30.26F
ST INIGOES     CLOUDY    66  46  48 E8        30.26F
LEONARDTOWN*   CLOUDY    66  45  45 E9        30.28F

$$

MDZ003>005-212000-
NORTH CENTRAL MARYLAND

CITY           SKY/WX    TMP DP  RH WIND       PRES   REMARKS
FREDERICK*     CLOUDY   N/A N/A N/A SE6       30.28F
HAGERSTOWN APT CLOUDY    64  39  39 SE12      30.24F
WESTMINSTER*   CLOUDY    68  46  45 SE9       30.27F

$$

MDZ501>502-212000-
WESTERN MARYLAND

CITY           SKY/WX    TMP DP  RH WIND       PRES   REMARKS
OAKLAND*         N/A     54  54 100 SE10G20   30.18F FOG
CUMBERLAND*    CLOUDY    64  50  59 E5        30.23F

$$

VAZ025>031-212000-
SHENANDOAH VALLEY

CITY           SKY/WX    TMP DP  RH WIND       PRES   REMARKS
WINCHESTER*    CLOUDY    64  45  48 E10G16    30.23F
FRONT ROYAL*   CLOUDY    68  50  52 SE8       30.21F
LURAY*         CLOUDY    68  57  68 CALM      30.21F
NEW MARKET*    CLOUDY    71  52  49 S9        30.19F
STAUNTON*      PTSUNNY   67  55  65 S8        30.24F
WAYNESBORO*    CLOUDY    64  54  70 E8        30.23F

$$

WVZ021-048>050-054>055-212000-
EASTERN WEST VIRGINIA PANHANDLE

CITY           SKY/WX    TMP DP  RH WIND       PRES   REMARKS
MARTINSBURG    CLOUDY    64  46  52 VRB7      30.23F
PETERSBURG*    CLOUDY    73  61  67 SE7       30.17F

$$

VAZ036>039-050-212000-
CENTRAL FOOTHILLS

CITY           SKY/WX    TMP DP  RH WIND       PRES   REMARKS
CHARLOTTESVILL CLOUDY    67  53  61 E6        30.24F
CULPEPER*      CLOUDY    65  54  65 SE3       30.27S
ORANGE*        CLOUDY    64  54  68 CALM      30.25F
GORDONSVILLE*  CLOUDY    66  55  69 CALM      30.24F
WARRENTON*     CLOUDY    68  49  51 SE8       30.25F

$$

VAZ055>057-212000-
NORTH AND CENTRAL PIEDMONT

CITY           SKY/WX    TMP DP  RH WIND       PRES   REMARKS
FREDERICKSBRG* CLOUDY    68  55  62 E7        30.25S
STAFFORD*      CLOUDY    67  50  54 E7        30.30S

$$

NCZ024-NYZ072-PAZ021-071-VAZ022-071-212000-
OTHER REGIONAL OBSERVATIONS

CITY           SKY/WX    TMP DP  RH WIND       PRES   REMARKS
NEW YORK CITY  SUNNY     65  32  29 S9G18     30.36F
PHILADELPHIA   PTSUNNY   73  41  31 SE14      30.28F
PITTSBURGH     LGT RAIN  67  66  97 SW12      30.06S
ROANOKE        CLOUDY    63  58  83 SE8       30.24F
RICHMOND       CLOUDY    69  56  62 SE9       30.24F
RALEIGH        PTSUNNY   73  63  70 E7        30.20F

$$

ANZ530>537-212000-
MARINE OBSERVATIONS

STATION/POSITION TIME  TEMP    WIND        PRES
                       AIR SEA DIR/SP/G
                 (UTC) (F)     (DEG/KT/KT) (MB)
THOMAS PT LIGHT  1900   65 66  110/  9/ 10   N/A
BALT KEY BRIDGE  1842   63     130/  6/  9 1025.3F
COVE POINT       1842   66     160/  8/  9 1025.6F
LEWISETTA        1842   64 72  120/ 13/ 17 1024.5F
SOLOMONS ISLAND  1842   65 68  130/ 10/ 13   N/A
PINEY POINT      1842          160/  9/ 10   N/A

$$





USA.gov is the U.S. government's official web portal to all federal, state and local government web resources and services.